Location: Hope
(40.9110°N, 74.9680°W)
Time: 05:48:30
(UTC-04:00)

OTV 5 (USA 277) - Pass Details

Date: 25 January 2019
Orbit: 310 x 324 km, 54.5° (Epoch: 08 October)

Event Time Altitude Azimuth Distance (km) Brightness Sun altitude
Rises 05:55:23 0° 202° (SSW) 2,059 ? -15.4°
Reaches altitude 10° 05:57:33 10° 188° (S) 1,231 ? -15.0°
Maximum altitude 05:59:49 24° 131° (SE) 731 ? -14.6°
Drops below altitude 10° 06:02:06 10° 74° (ENE) 1,237 ? -14.1°
Sets 06:04:14 0° 60° (ENE) 2,054 ? -13.7°
